Date String (YYYY-MM-DD hh:mm:ss) UTC,Instrument flags,absolute air pressure of the measurement (hPa),sample flow rate (lpm),inlet stack bypass flow (lpm),air temperature of the measurement (°C),ambient temperature measured by the external sensor (°C),aerosol sample conditioner tube jacket temperature (°C),OPC LED temperature (°C),internal box temperature (°C),relative humidity of the measurement (%),span deviation,mass concentration of particles derived from Lorenz-Mie calculation of OPC scattering (μg/m³),mass concentration of particles derived from Lorenz-Mie calculation of OPC scattering (μg/m³),mass concentration of particles derived from Lorenz-Mie calculation of OPC scattering (μg/m³)
DateTimeUTC,F1_M11,P_M11,Q1_M11,Q2_M11,T1_M11,T2_M11,T3_M11,T4_M11,T5_M11,U1_M11,ZSPAN_M11,X0_M11,X2_M11,X1_M11
2024-06-14 05:00:00,SystemResetWarning,0834.2,5.00,000.00,029.1,028.5,000.0,037.3,031.0,029.7,0000.0,0063.14,0009.13,0004.42
2024-06-14 05:01:00,SystemResetWarning,0834.1,5.01,000.00,029.2,028.6,000.0,037.4,031.1,029.7,0000.0,0063.19,0009.06,0004.42
2024-06-14 05:02:00,SystemResetWarning,0834.1,5.00,000.00,029.3,028.8,000.0,037.4,031.2,029.6,0000.0,0064.86,0008.96,0004.41
2024-06-14 05:03:00,SystemResetWarning,0834.1,5.00,000.00,029.4,028.9,000.0,037.4,031.3,029.4,0000.0,0062.15,0008.88,0004.42
2024-06-14 05:04:00,SystemResetWarning,0834.1,5.00,000.00,029.4,029.0,000.0,037.5,031.3,029.2,0000.0,0058.39,0008.80,0004.41
2024-06-14 05:05:00,SystemResetWarning,0834.1,4.99,000.00,029.5,029.1,000.0,037.5,031.4,029.0,0000.0,0057.58,0008.62,0004.41
2024-06-14 05:06:00,SystemResetWarning,0834.1,5.00,000.00,029.6,029.2,000.0,037.6,031.5,028.9,0000.0,0054.73,0008.49,0004.41
2024-06-14 05:07:00,SystemResetWarning,0834.1,5.00,000.00,029.7,029.3,000.0,037.6,031.5,028.9,0000.0,0050.69,0008.47,0004.41
2024-06-14 05:08:00,SystemResetWarning,0834.1,5.01,000.00,029.7,029.4,000.0,037.7,031.6,028.8,0000.0,0048.59,0008.38,0004.40
2024-06-14 05:09:00,SystemResetWarning,0834.1,5.01,000.00,029.8,029.5,000.0,037.7,031.7,028.7,0000.0,0047.29,0008.35,0004.40
2024-06-14 05:10:00,SystemResetWarning,0834.0,4.99,000.00,029.8,029.1,000.0,037.8,031.5,028.6,0000.0,0044.19,0008.31,0004.40
2024-06-14 05:11:00,SystemResetWarning,0833.9,4.99,000.00,029.5,026.9,000.0,037.9,030.5,029.1,0000.0,0043.09,0008.25,0004.39
2024-06-14 05:12:00,SystemResetWarning,0834.0,5.02,000.00,029.2,026.3,000.0,037.9,030.1,029.7,0000.0,0043.83,0008.24,0004.39
2024-06-14 05:13:00,SystemResetWarning,0833.9,4.98,000.00,029.1,026.7,000.0,037.8,030.2,030.0,0000.0,0043.04,0008.13,0004.38
2024-06-14 05:14:00,SystemResetWarning,0834.0,4.99,000.00,029.1,027.1,000.0,037.7,030.4,030.1,0000.0,0042.66,0008.12,0004.36
2024-06-14 05:15:00,SystemResetWarning,0834.0,5.01,000.00,029.2,027.5,000.0,037.6,030.7,030.1,0000.0,0042.93,0008.13,0004.36
2024-06-14 05:16:00,SystemResetWarning,0834.0,5.01,000.00,029.2,027.8,000.0,037.6,030.8,030.1,0000.0,0042.60,0008.17,0004.35
2024-06-14 05:17:00,SystemResetWarning,0834.1,4.99,000.00,029.3,028.1,000.0,037.6,031.0,030.0,0000.0,0043.72,0008.37,0004.35
2024-06-14 05:18:00,SystemResetWarning,0834.1,5.00,000.00,029.3,028.4,000.0,037.6,031.1,029.9,0000.0,0045.43,0008.31,0004.35
2024-06-14 05:19:00,SystemResetWarning,0834.1,5.00,000.00,029.4,028.6,000.0,037.6,031.2,029.8,0000.0,0046.92,0008.24,0004.35
2024-06-14 05:20:00,SystemResetWarning,0834.1,5.01,000.00,029.5,028.8,000.0,037.6,031.3,029.6,0000.0,0043.57,0008.16,0004.35
2024-06-14 05:21:00,SystemResetWarning,0834.2,5.01,000.00,029.5,028.9,000.0,037.6,031.4,029.5,0000.0,0042.37,0008.10,0004.34
2024-06-14 05:22:00,SystemResetWarning,0834.1,4.99,000.00,029.6,029.1,000.0,037.7,031.4,029.4,0000.0,0042.84,0008.08,0004.34
2024-06-14 05:23:00,SystemResetWarning,0834.1,5.00,000.00,029.7,029.2,000.0,037.7,031.5,029.4,0000.0,0042.04,0008.04,0004.34
2024-06-14 05:24:00,SystemResetWarning,0834.1,5.02,000.00,029.7,029.3,000.0,037.8,031.6,029.2,0000.0,0042.57,0008.05,0004.33
2024-06-14 05:25:00,SystemResetWarning,0834.2,5.00,000.00,029.8,029.4,000.0,037.8,031.7,029.1,0000.0,0044.53,0007.97,0004.33
2024-06-14 05:26:00,SystemResetWarning,0834.1,4.99,000.00,029.8,029.1,000.0,037.9,031.5,029.0,0000.0,0046.16,0007.89,0004.33
2024-06-14 05:27:00,SystemResetWarning,0834.1,5.00,000.00,029.6,027.0,000.0,037.9,030.4,029.4,0000.0,0043.50,0007.85,0004.34
2024-06-14 05:28:00,SystemResetWarning,0834.1,5.01,000.00,029.3,026.4,000.0,037.9,030.1,029.9,0000.0,0043.78,0007.63,0004.32
2024-06-14 05:29:00,SystemResetWarning,0834.1,5.00,000.00,029.1,026.7,000.0,037.8,030.2,030.2,0000.0,0042.76,0007.59,0004.31
2024-06-14 05:30:00,SystemResetWarning,0834.1,5.00,000.00,029.1,027.1,000.0,037.7,030.5,030.2,0000.0,0043.08,0007.67,0004.31
2024-06-14 05:31:00,SystemResetWarning,0834.1,5.00,000.00,029.2,027.5,000.0,037.7,030.7,030.1,0000.0,0044.43,0007.66,0004.30
2024-06-14 05:32:00,SystemResetWarning,0834.2,4.99,000.00,029.2,027.8,000.0,037.7,030.9,030.0,0000.0,0044.91,0007.67,0004.31
2024-06-14 05:33:00,SystemResetWarning,0834.2,5.01,000.00,029.3,028.1,000.0,037.6,031.0,029.7,0000.0,0045.30,0007.62,0004.30
2024-06-14 05:34:00,SystemResetWarning,0834.2,5.00,000.00,029.4,028.4,000.0,037.6,031.1,029.6,0000.0,0046.37,0007.56,0004.28
2024-06-14 05:35:00,SystemResetWarning,0834.1,5.00,000.00,029.4,028.6,000.0,037.6,031.2,029.4,0000.0,0045.90,0007.57,0004.29
2024-06-14 05:36:00,SystemResetWarning,0834.1,4.99,000.00,029.5,028.8,000.0,037.7,031.3,029.1,0000.0,0043.21,0007.62,0004.29
2024-06-14 05:37:00,SystemResetWarning,0834.1,5.00,000.00,029.6,028.9,000.0,037.7,031.4,028.9,0000.0,0041.68,0007.64,0004.29
2024-06-14 05:38:00,SystemResetWarning,0834.1,5.00,000.00,029.6,029.1,000.0,037.7,031.4,028.8,0000.0,0042.21,0007.59,0004.29
2024-06-14 05:39:00,SystemResetWarning,0834.1,5.00,000.00,029.7,029.2,000.0,037.8,031.5,028.6,0000.0,0041.70,0007.62,0004.29
2024-06-14 05:40:00,SystemResetWarning,0834.1,5.00,000.00,029.8,029.3,000.0,037.8,031.6,028.5,0000.0,0041.13,0007.64,0004.29
2024-06-14 05:41:00,SystemResetWarning,0834.1,5.00,000.00,029.8,029.4,000.0,037.8,031.7,028.3,0000.0,0040.09,0007.59,0004.28
2024-06-14 05:42:00,SystemResetWarning,0834.1,5.00,000.00,029.9,029.5,000.0,037.9,031.7,028.2,0000.0,0039.46,0007.58,0004.27
2024-06-14 05:43:00,SystemResetWarning,0834.1,5.00,000.00,029.9,029.2,000.0,037.9,031.6,028.1,0000.0,0040.50,0007.52,0004.26
2024-06-14 05:44:00,SystemResetWarning,0834.0,5.00,000.00,029.6,027.1,000.0,038.0,030.6,028.6,0000.0,0039.12,0007.43,0004.27
2024-06-14 05:45:00,SystemResetWarning,0834.0,5.01,000.00,029.3,026.4,000.0,038.0,030.2,029.1,0000.0,0037.86,0007.35,0004.28
2024-06-14 05:46:00,SystemResetWarning,0834.0,5.00,000.00,029.2,026.7,000.0,037.9,030.3,029.3,0000.0,0035.48,0007.27,0004.27
2024-06-14 05:47:00,SystemResetWarning,0834.0,4.99,000.00,029.2,027.1,000.0,037.8,030.5,029.4,0000.0,0034.75,0007.18,0004.27
2024-06-14 05:48:00,SystemResetWarning,0834.0,5.01,000.00,029.2,027.5,000.0,037.8,030.7,029.4,0000.0,0033.72,0007.17,0004.27
2024-06-14 05:49:00,SystemResetWarning,0834.0,5.00,000.00,029.3,027.8,000.0,037.7,030.9,029.2,0000.0,0033.58,0007.14,0004.27
2024-06-14 05:50:00,SystemResetWarning,0834.1,4.99,000.00,029.3,028.1,000.0,037.7,031.0,029.2,0000.0,0032.15,0007.06,0004.28
2024-06-14 05:51:00,SystemResetWarning,0834.1,4.99,000.00,029.4,028.4,000.0,037.7,031.1,029.1,0000.0,0033.34,0006.96,0004.28
2024-06-14 05:52:00,SystemResetWarning,0834.1,5.00,000.00,029.5,028.6,000.0,037.7,031.2,029.0,0000.0,0033.50,0006.87,0004.28
2024-06-14 05:53:00,SystemResetWarning,0834.2,5.01,000.00,029.5,028.8,000.0,037.7,031.3,028.9,0000.0,0032.48,0006.84,0004.28
2024-06-14 05:54:00,SystemResetWarning,0834.2,5.01,000.00,029.6,028.9,000.0,037.7,031.4,028.8,0000.0,0030.75,0006.89,0004.29
2024-06-14 05:55:00,SystemResetWarning,0834.3,5.01,000.00,029.6,029.1,000.0,037.8,031.5,028.7,0000.0,0030.86,0006.98,0004.30
2024-06-14 05:56:00,SystemResetWarning,0834.4,5.00,000.00,029.7,029.2,000.0,037.8,031.5,028.6,0000.0,0031.10,0007.07,0004.30
2024-06-14 05:57:00,SystemResetWarning,0834.3,5.00,000.00,029.8,029.3,000.0,037.8,031.6,028.4,0000.0,0031.68,0007.08,0004.32
2024-06-14 05:58:00,SystemResetWarning,0834.3,5.00,000.00,029.8,029.4,000.0,037.9,031.7,028.3,0000.0,0032.82,0007.15,0004.34
2024-06-14 05:59:00,SystemResetWarning,0834.3,5.00,000.00,029.9,029.5,000.0,037.9,031.7,028.2,0000.0,0033.71,0007.13,0004.34
